This demonstration page uses our WeatherBlox Daily Observations layout. Learn more.

Left ArrowRight Arrow

39.92423, -83.80882

Hourly Observations for May 5, 2020

Temp ( °F °C ) Dew Point ( °F °C ) Humidity (%) Winds ( mph kmh ) Pressure ( in mb ) Visibility ( mi km ) Precip ( " mm )
12:56 am 00:56 Clear 50 10 40 4.4 68 68 ENE 17 28 29.99 1016 10 16.0934 0 0
1:56 am 01:56 Clear 49 9.4 39 3.9 69 69 ENE 14 22 29.98 1015 10 16.0934 0 0
2:56 am 02:56 Partly Cloudy 48 8.9 38 3.3 68 68 E 16 26 29.96 1015 10 16.0934 0 0
3:56 am 03:56 Mostly Cloudy 47 8.3 37 2.8 69 69 E 17 28 29.94 1014 10 16.0934 0 0
4:56 am 04:56 Cloudy 46 7.8 36 2.2 68 68 E 14 22 29.96 1015 10 16.0934 0 0
5:56 am 05:56 Cloudy 46 7.8 35 1.7 66 66 E 14 22 29.97 1015 10 16.0934 0 0
6:56 am 06:56 Cloudy 45 7.2 33 0.6 63 63 E 14 22 29.97 1015 10 16.0934 0 0
7:56 am 07:56 Cloudy 43 6.1 36 2.2 76 76 ENE 17 28 29.93 1013 10 16.0934 0.01 0.254
9:56 am 09:56 Cloudy with Light Rain 43 6.1 31 -0.6 63 63 E 16 26 29.91 1013 10 16.0934 0.001 0.001
10:56 am 10:56 Cloudy with Light Rain 44 6.7 29 -1.7 55 55 E 20 31 29.9 1013 10 16.0934 0.001 0.001
11:56 am 11:56 Cloudy 47 8.3 29 -1.7 50 50 E 16 26 29.88 1012 10 16.0934 0.001 0.001
12:56 pm 12:56 Cloudy 51 10.6 32 0 48 48 ENE 21 33 29.83 1010 10 16.0934 0 0
1:56 pm 13:56 Cloudy 50 10 30 -1.1 46 46 ENE 14 22 29.83 1010 10 16.0934 0 0
2:56 pm 14:56 Cloudy 51 10.6 31 -0.6 46 46 NE 13 20 29.82 1010 10 16.0934 0 0
3:56 pm 15:56 Cloudy 51 10.6 34 1.1 52 52 NNE 12 19 29.81 1009 10 16.0934 0 0
4:56 pm 16:56 Cloudy 50 10 35 1.7 57 57 NNE 14 22 29.83 1010 10 16.0934 0 0
5:56 pm 17:56 Cloudy 49 9.4 34 1.1 56 56 NNE 16 26 29.84 1010 10 16.0934 0 0
6:56 pm 18:56 Cloudy 48 8.9 34 1.1 58 58 NNE 13 20 29.85 1011 10 16.0934 0.01 0.254
7:56 pm 19:56 Cloudy 45 7.2 35 1.7 68 68 N 16 26 29.88 1012 10 16.0934 0 0
8:56 pm 20:56 Cloudy 43 6.1 35 1.7 74 74 NNE 9 15 29.9 1013 10 16.0934 0 0
9:56 pm 21:56 Cloudy 42 5.6 36 2.2 79 79 N 7 11 29.93 1013 10 16.0934 0 0
10:56 pm 22:56 Cloudy with Light Rain 40 4.4 40 4.4 100 100 N 10 17 29.95 1014 7 11.26538 0.001 0.001
11:05 pm 23:05 Cloudy with Rain 39 4 39 4 100 100 N 9 15 29.97 1015 6 9.65604 0.001 0.001
11:12 pm 23:12 Cloudy with Light Rain 39 4 39 4 100 100 N 10 17 29.97 1015 7 11.26538 0.001 0.001
11:45 pm 23:45 Cloudy with Rain 39 4 39 4 100 100 N 13 20 29.97 1015 8 12.87472 0 0
11:52 pm 23:52 Cloudy with Rain 37 3 37 3 100 100 N 12 19 29.97 1015 9 14.48406 0 0
11:56 pm 23:56 Cloudy with Light Rain 38 3.3 38 3.3 100 100 N 12 19 29.95 1014 9 14.48406 0 0

Powered by AerisWeather